Regional Weather Roundup
Issued by NWS State College, PA

Home | Current Version | Previous Version | Graphics & Text | Print | Product List | Glossary Off
Versions: 1 2 3 4 5 6 7 8 9 10 11 12 13 14 15 16 17 18 19 20 21 22 23 24 25 26 27 28 29 30 31 32 33 34 35 36 37 38 39 40 41 42 43 44 45 46 47 48 49 50

000
ASUS41 KCTP 251010
RWRCTP

REGIONAL WEATHER ROUNDUP
NATIONAL WEATHER SERVICE STATE COLLEGE PA
500 AM EST THU DEC 25 2014

Note: "fair" indicates few or no clouds below 12,000 feet with no
significant weather and/or obstructions to visibility.

* = STATION THAT DOES NOT REPORT PRECIPITATION /E.G. RAIN...SNOW...ETC/
    THUNDER OR FOG.

PAZ002>004-007>009-013>016-020>023-029>032-251100-
WESTERN PENNSYLVANIA

CITY           SKY/WX    TMP DP  RH WIND       PRES   REMARKS
ERIE           CLOUDY    40  32  73 W14G33    29.63R
MEADVILLE      LGT RAIN  37  31  78 SW9G17    29.64R
FRANKLIN*      CLOUDY    37  28  70 SW12G20   29.67R
NEW CASTLE       N/A     39  33  79 SW10G20   29.71R
BEAVER COUNTY  NOT AVBL
BUTLER*        CLOUDY    37  30  75 SW17      29.72R
PITTSBURGH INT CLOUDY    39  32  76 SW15G25   29.71R
PITTSBURGH     CLOUDY    39  30  70 W12G22    29.73R
INDIANA*       CLOUDY    39  34  81 W18G25    29.74R
LATROBE        CLOUDY    39  36  87 SW8       29.75R
WASHINGTON CO* NOT AVBL
$$

PAZ004>006-010>012-017>019-024>028-033>037-041-042-045-046-049>053-251100-
CENTRAL PENNSYLVANIA

CITY           SKY/WX    TMP DP  RH WIND       PRES   REMARKS
BRADFORD       LGT RAIN  36  31  82 SW15G28   29.59R
DUBOIS         CLOUDY    36  32  85 W16       29.64R
CLEARFIELD     MOCLDY    37  31  78 SW16G30   29.66R
JOHNSTOWN      CLOUDY    36  31  82 W15G22    29.67R
ALTOONA        CLOUDY    40  32  73 W24       29.69R
STATE COLLEGE  MOCLDY    41  33  74 W20G37    29.65S
WILLIAMSPORT   CLOUDY    45  38  76 W8        29.62S
SELINSGROVE    CLOUDY    44  39  82 SW3       29.65S
FT INDIANTOWN  CLOUDY    45  45 100 SW7       29.64F
CAPITAL CITY   CLOUDY    46  42  86 W6        29.65S
HARRISBURG     CLOUDY    45  41  86 CALM      29.65S
YORK           CLOUDY    46  42  86 CALM      29.65S
$$

PAZ038>040-043-044-047-048-054-055-060>062-067>071-251100-
EASTERN PENNSYLVANIA

CITY           SKY/WX    TMP DP  RH WIND       PRES   REMARKS
SCRANTON       LGT RAIN  45  40  82 SW14G22   29.62R
MOUNT POCONO   LGT RAIN  41  37  86 W17G31    29.58R
ALLENTOWN      LGT RAIN  49  42  77 W10G21    29.63R
QUAKERTOWN*    NOT AVBL
READING        LGT RAIN  48  43  82 W10       29.65R
LANCASTER      LGT RAIN  47  43  86 NW16      29.63F
COATESVILLE    LGT RAIN  50  46  87 NW15      29.64S
POTTSTOWN      LGT RAIN  50  46  86 NW9G20    29.63R
BLUE BELL      CLOUDY    54  48  82 W6        29.62R
DOYLESTOWN     LGT RAIN  49  32  52 NW15G23   29.61R
WILLOW GROVE   NOT AVBL
NORTH PHILA    LGT RAIN  56  47  71 W13G21    29.64R
PHILADELPHIA   LGT RAIN  55  49  80 W8        29.63R
$$


USA.gov is the U.S. government's official web portal to all federal, state and local government web resources and services.